SCP
0 0 0 0 0 0 0 0 0 0 0 0 0 0 0 0 0 0 0 0 0 0 0 0 0 0 0 0 0 0 0 0 0 0 0 0 0 0 0 -0 0 0 0
0 0 0 0 0 0 0 0 0 0 0 0 0 0 0 0 0 0 0 0 0 0 0 0 0 0 0 0 0 0 0 0 0 0 0 0 0 0 0 0 0 0 0
0 0 0 0 0 0 0 0 0 0 0 0 0 0 0 0 0 0 0 0 0 0 0 0 0 0 0 0 0 0 -0 0 0 0 0 0 0 0 0 0 0 0 0
0 0 0 0 0 0 0 0 0 0 0 0 0 0 0 0 0 0 0 0 0 0 0 0 0 0 0 0 0 -0 0 0 0 0 0 0 0 0 0 0 0 0 0
0 0 0 0 0 0 0 0 0 0 0 0 0 0 0 0 0 0 0 0 0 0 0 0 0 0 -0 -0 0 0 0 0 0 0 0 0 0 0 0 0 0 0 0
0 0 0 0 0 0 0 0 0 0 0 0 0 0 0 0 -0 -0 0 0 0 0 0 0 0 -0 -0 -0 -0 -0 -0 0 -0 0 0 0 0 0 0 0 0 0 0
0 0 0 0 0 0 0 0 0 0 0 0 0 0 0 0 0 -0 0 0 0 0 -0 -0 -0 0 -0 -0 -0 -0 -0 -0 0 0 0 0 0 0 0 0 0 0 0
0 0 0 0 0 0 0 0 0 0 0 0 0 0 0 0 -0 -0 -0 0 -0 -0 -0 -0 -0 0 0 -0 -0 0 0 0 0 0 0 0 0 0 0 0 0 0 0
0 0 0 0 0 0 0 0 0 0 0 0 0 0 0 0 0 0 -0 0 -0 -0 -0 -0 0 0 0 -0 -0 0 0 0 0 0 0 0 0 0 0 0 0 0 0
0 0 0 0 0 0 0 0 0 0 0 0 0 0 0 0 0 0 -0 0 -0 -0 0 0 0 0 -0 -0 0 0 0 0 0 0 0 0 0 0 0 0 0 0 0
0 0 0 0 0 0 0 0 0 0 0 0 0 0 0 0 0 0 -0 0 -0 -0 -0 -0 0 -0 -0 -0 0 0 0 0 0 0 0 0 0 0 0 0 0 0 0
0 0 0 0 0 0 0 0 0 0 0 0 0 0 0 0 0 0 -0 -0 -0 0 -0 0 0 -0 -0 -0 0 0 0 0 0 0 0 0 0 0 0 0 0 0 0
0 0 0 0 0 0 0 0 0 0 0 0 0 0 0 0 0 0 -0 -0 -0 0 -0 0 -0 -0 -0 0 0 0 0 0 0 0 0 0 0 0 0 0 0 0 0
0 0 0 0 0 0 0 0 0 0 0 0 0 0 0 0 0 0 0 -0 0 0 0 0 0 0 0 0 0 0 0 0 0 0 0 0 0 0 0 0 0 0 0
0 0 0 0 0 0 0 0 0 0 0 0 0 0 0 0 0 0 0 -0 0 -0 0 0 0 0 0 0 0 0 0 0 0 0 0 0 0 0 0 0 0 0 0
0 0 0 0 0 0 0 0 0 0 0 0 0 0 0 0 0 -0 -0 -0 -0 -0 0 0 0 0 0 0 0 0 0 0 0 0 0 0 0 0 0 0 0 0 0
0 0 0 0 0 0 0 0 0 0 0 0 0 0 0 0 0 0 -0 -0 -0 -0 0 0 0 0 0 0 0 0 0 0 0 0 0 0 0 0 0 0 0 0 0
0 0 0 0 0 0 0 0 0 0 0 0 0 0 0 0 0 -0 -0 0 0 0 0 0 0 0 0 0 0 0 0 0 0 0 0 0 0 0 0 0 0 0 0
0 0 0 0 0 0 0 0 0 0 0 0 0 0 0 0 0 0 -0 0 0 0 0 0 0 0 0 0 0 0 0 0 0 0 0 0 0 0 0 0 0 0 0
0 0 0 0 0 0 0 0 0 0 0 0 0 0 0 0 0 0 0 0 -0 -0 0 0 0 0 0 0 0 0 0 0 0 0 0 0 0 0 0 0 0 0 0
0 0 0 0 0 0 0 0 0 0 0 0 0 0 0 0 0 0 0 0 0 -0 -0 0 -0 0 0 0 0 0 0 0 0 0 0 0 0 0 0 0 0 0 0
0 0 0 0 0 0 0 0 0 0 0 0 0 0 0 0 0 0 0 0 0 0 -0 -0 0 0 0 -0 -0 -0 -0 -0 -0 -0 -0 -0 -0 -0 -0 0 0 0 0
0 0 0 0 0 0 0 0 0 0 0 0 0 0 0 0 0 0 0 0 0 0 0 0 -0 0 0 0 0 0 0 0 -0 -0 -0 -0 -0 -0 -0 -0 -0 -0 -0
0 0 0 0 0 0 0 0 0 0 0 0 0 0 0 0 0 0 0 0 0 0 0 0 0 0 0 -0 -0 -0 -0 -0 -0 -0 -0 -0 -0 -0 -0 -0 -0 -0 -0
0 0 0 0 0 0 0 0 0 0 0 0 0 0 0 0 0 0 0 0 0 0 0 0 0 0 0 0 0 0 0 0 -0 -0 -0 -0 -0 -0 -0 -0 -0 -0 -0
0 0 0 0 0 0 0 0 0 0 0 0 0 0 0 0 0 0 0 0 0 0 0 0 0 0 0 0 0 0 0 0 0 0 0 0 0 0 0 0 0 0 0
Wind_Speed_500mb
50 54 53 54 56 58 61 63 65 69 69 73 76 76 75 74 78 77 72 73 65 67 70 73 77 74 72 74 73 73 73 73 70 80 70 68 57 55 55 57 55 72 80
54 58 58 57 58 59 62 63 66 70 73 71 77 81 83 80 74 76 69 59 68 70 75 77 76 72 70 72 73 76 78 76 70 68 74 64 54 46 47 43 39 46 70
62 63 65 63 62 62 62 66 68 72 79 75 71 74 76 75 75 73 71 69 70 72 70 70 74 74 73 75 74 77 77 73 71 61 68 55 49 50 43 39 37 27 33
69 74 74 71 68 66 66 67 74 69 71 71 68 68 65 65 61 59 56 58 59 66 70 70 71 71 72 76 77 78 74 71 62 61 47 39 33 27 32 40 34 24 20
73 74 73 74 73 75 76 75 68 64 62 61 62 63 60 58 55 55 57 62 65 66 72 72 73 72 70 68 74 77 73 72 63 58 38 33 20 17 15 12 11 14 13
73 73 74 77 81 81 77 73 67 61 58 58 63 58 61 53 53 53 55 63 61 66 71 65 60 58 59 62 66 64 63 68 65 39 29 22 15 17 21 17 23 15 16
71 71 73 77 79 75 72 69 69 66 60 63 56 52 54 55 52 56 54 61 64 58 58 59 58 50 50 60 59 61 39 41 52 30 31 23 19 20 15 17 18 24 21
71 73 74 75 73 70 68 68 69 68 65 59 54 53 56 54 54 54 56 58 58 62 61 58 52 47 53 52 55 28 18 9 26 34 27 18 21 20 14 15 16 17 16
70 73 74 71 69 67 67 68 69 67 63 58 55 55 53 55 53 54 52 61 71 57 63 45 43 43 51 58 46 8 5 5 12 4 17 14 10 10 13 17 20 17 10
68 72 72 67 63 62 63 67 65 63 59 58 59 53 56 64 55 50 51 64 68 59 48 47 42 45 54 49 37 5 5 5 3 2 10 11 12 12 11 10 15 12 13
65 70 69 62 58 56 59 62 64 64 64 65 63 60 60 57 57 47 53 58 70 61 44 45 51 54 60 39 24 10 6 11 9 7 10 8 9 11 15 12 17 17 18
69 69 65 57 54 55 57 56 59 60 63 64 64 63 61 58 50 47 52 55 59 64 57 54 55 60 44 37 13 10 12 12 12 13 14 15 19 19 21 22 22 22 16
71 68 64 56 54 56 56 56 58 61 61 64 64 65 67 63 55 49 56 51 56 56 51 52 45 49 34 34 4 2 18 14 17 19 22 19 12 8 7 8 10 13 14
70 67 62 59 59 57 56 54 60 63 61 64 66 66 67 64 57 58 65 66 59 67 55 44 37 34 20 27 27 12 33 27 24 20 15 13 7 4 6 8 9 9 10
68 66 62 59 59 60 59 60 62 58 52 63 63 63 62 64 57 57 54 57 56 51 53 34 28 25 27 29 36 37 34 29 26 19 13 8 4 1 2 6 9 11 13
68 66 61 61 59 61 66 74 64 56 53 52 50 48 55 48 51 50 49 48 48 39 36 28 26 22 22 22 22 23 23 22 19 12 6 2 3 6 11 11 9 11 12
63 61 60 61 63 63 67 72 78 74 66 63 48 49 44 46 46 47 45 45 34 31 25 23 21 20 16 14 12 9 7 6 2 2 6 9 12 13 13 14 15 16 16
60 56 57 61 61 63 66 68 73 77 83 80 65 47 43 44 47 44 41 39 32 23 21 22 21 18 15 12 10 9 8 8 10 11 13 15 17 17 17 17 18 20 22
60 58 59 62 61 62 65 68 70 72 73 71 67 58 50 51 44 45 33 30 33 28 26 23 21 19 16 14 13 12 12 12 13 14 16 17 19 20 21 21 22 25 27
61 60 60 63 64 66 65 67 69 68 68 67 63 63 58 64 61 47 40 33 28 30 30 26 23 22 20 18 17 16 16 16 16 17 19 20 22 24 25 26 27 28 30
62 63 65 67 66 65 66 65 65 66 66 65 62 58 48 52 50 48 44 38 34 31 29 30 27 25 23 22 22 21 21 20 21 23 24 26 28 29 30 32 34 35 36
65 67 68 67 67 67 66 65 65 64 63 63 63 58 52 52 52 50 46 41 37 34 31 31 31 28 27 28 29 29 29 27 26 29 30 31 32 34 35 37 38 38 39
67 67 66 68 68 68 66 66 64 63 62 62 60 58 56 56 55 53 49 43 38 35 32 31 32 32 31 32 33 35 35 33 33 35 36 36 38 38 39 41 40 40 39
69 70 70 69 71 70 69 67 64 62 61 61 59 59 59 59 58 55 51 46 40 35 31 31 30 30 31 32 35 36 37 35 37 37 39 41 41 39 40 41 40 38 37
71 72 73 74 73 73 71 67 65 63 63 63 62 61 61 61 58 55 54 51 46 40 33 29 28 27 27 28 30 31 33 34 36 35 38 40 40 38 37 37 34 33 33
70 72 74 75 73 72 70 68 65 65 66 66 62 61 62 61 57 57 61 59 52 43 36 31 27 25 23 21 21 24 27 29 30 31 34 33 32 28 27 27 26 30 31
Wind_Direction_500mb
325 325 325 323 321 317 315 313 311 311 311 307 306 305 304 302 297 297 292 287 287 289 290 290 289 286 282 283 283 282 282 284 281 285 287 288 288 281 282 283 286 254 248
331 329 328 324 322 319 317 315 315 311 308 306 303 303 302 302 302 302 296 287 290 292 291 291 287 285 281 282 284 284 284 284 280 281 284 286 283 286 289 284 249 219 222
333 331 329 327 326 324 321 319 317 309 308 311 309 308 306 305 301 298 298 296 292 291 289 290 289 287 285 283 285 285 286 286 283 272 279 280 280 277 262 254 229 210 171
335 333 333 331 329 326 324 320 318 319 315 315 315 314 313 312 309 306 300 297 295 293 290 291 291 287 284 284 284 283 287 286 283 276 265 274 253 257 221 230 217 214 202
334 335 336 335 332 332 328 328 325 323 322 321 320 318 318 314 312 310 306 304 302 300 300 294 291 285 279 278 279 280 284 283 282 275 263 250 245 225 175 156 174 184 170
337 337 339 337 337 336 336 336 333 331 327 325 321 323 317 317 315 312 309 309 307 305 304 302 296 292 291 285 287 286 277 272 267 243 255 243 233 203 224 229 157 152 144
337 338 340 340 338 339 340 341 343 340 333 334 328 328 329 324 325 321 318 315 312 313 309 303 302 300 301 304 306 297 265 256 255 248 245 237 224 200 199 201 191 185 173
338 339 340 340 339 341 341 343 343 340 338 335 339 333 329 331 326 327 326 322 323 326 322 321 315 312 315 319 303 293 236 257 239 240 236 207 182 218 228 194 180 174 164
336 338 339 340 339 341 342 344 342 338 340 341 331 336 341 342 333 330 330 331 332 335 333 337 336 324 314 331 330 211 181 239 236 149 171 185 172 172 168 168 174 181 149
335 337 338 339 336 338 341 340 339 341 338 337 346 350 349 344 338 334 335 335 333 338 337 339 337 332 330 333 344 149 182 233 242 156 167 164 157 166 174 181 180 174 159
334 337 339 337 335 338 339 338 341 339 337 341 340 348 345 341 343 338 339 338 341 341 345 338 332 336 331 329 331 266 230 223 210 178 176 187 185 181 193 182 184 174 187
338 339 338 337 338 336 335 339 340 339 336 334 337 340 338 342 341 337 338 343 344 347 343 331 334 337 340 327 310 270 214 207 188 173 162 145 136 149 154 163 176 186 194
339 340 340 340 338 336 333 335 338 340 335 333 336 329 332 335 337 340 342 338 341 337 335 331 332 340 347 334 312 227 164 159 154 149 158 162 166 160 175 194 216 235 238
341 341 341 338 337 336 336 335 331 335 333 334 325 325 325 327 330 342 336 337 337 332 331 334 340 350 24 72 109 119 158 158 166 160 152 140 143 196 232 246 250 236 239
342 342 339 336 336 336 335 335 333 334 329 322 321 321 322 322 327 326 327 330 332 333 323 336 346 4 31 60 88 111 122 121 123 123 124 117 97 61 240 247 252 237 242
342 340 338 338 337 336 335 337 341 337 328 326 323 323 320 321 322 325 327 328 328 334 331 347 352 3 17 37 56 76 97 111 119 125 136 172 282 292 297 299 279 268 261
339 339 340 342 337 335 335 335 336 345 348 348 337 332 332 327 330 333 329 329 332 332 344 349 351 355 356 4 19 37 63 76 91 266 289 294 295 289 282 276 281 278 270
343 342 343 340 338 337 335 338 341 339 342 348 353 343 337 337 337 334 332 322 335 346 342 340 339 342 341 337 329 320 309 297 288 288 285 285 281 280 279 277 274 272 273
347 348 345 344 343 341 342 341 342 342 342 344 350 354 355 354 341 335 337 333 331 333 331 328 324 320 320 317 312 305 297 291 288 282 277 277 281 284 285 286 286 285 284
353 352 349 347 346 346 345 343 344 343 345 348 350 349 352 346 336 344 345 337 328 321 319 317 314 308 304 302 299 296 294 293 291 289 285 284 283 282 282 282 280 279 281
357 356 353 353 349 348 347 346 345 348 348 349 349 351 337 330 344 345 339 335 326 318 312 309 306 301 297 294 291 288 285 284 285 285 284 285 285 284 284 284 284 284 284
360 358 356 353 352 351 351 351 351 351 351 350 352 354 353 352 351 348 345 339 329 320 311 303 301 298 294 289 286 284 284 284 284 285 285 285 285 286 285 282 279 279 280
4 358 357 357 356 355 354 355 355 354 353 354 354 354 355 353 353 351 349 345 338 329 320 308 299 294 289 285 282 281 280 281 279 280 282 282 283 285 285 284 284 283 283
5 2 1 359 359 358 358 357 358 358 357 357 357 355 353 353 353 354 354 352 347 340 330 319 310 301 293 284 279 277 276 275 272 272 274 277 279 282 283 281 280 280 281
5 4 4 2 0 360 359 0 1 0 360 358 356 355 355 355 355 357 357 356 355 351 346 335 326 317 305 294 286 281 278 275 274 273 272 275 278 278 277 277 279 279 279
6 6 5 4 3 2 1 1 2 1 360 358 358 357 357 358 359 358 357 359 358 355 352 347 340 331 324 313 300 287 280 276 273 271 272 274 275 274 273 275 277 278 280
Wind_Speed_850mb
50 54 53 54 56 58 61 63 65 69 69 73 76 76 75 74 78 77 72 73 65 67 70 73 77 74 72 74 73 73 73 73 70 80 70 68 57 55 55 57 55 72 80
54 58 58 57 58 59 62 63 66 70 73 71 77 81 83 80 74 76 69 59 68 70 75 77 76 72 70 72 73 76 78 76 70 68 74 64 54 46 47 43 39 46 70
62 63 65 63 62 62 62 66 68 72 79 75 71 74 76 75 75 73 71 69 70 72 70 70 74 74 73 75 74 77 77 73 71 61 68 55 49 50 43 39 37 27 33
69 74 74 71 68 66 66 67 74 69 71 71 68 68 65 65 61 59 56 58 59 66 70 70 71 71 72 76 77 78 74 71 62 61 47 39 33 27 32 40 34 24 20
73 74 73 74 73 75 76 75 68 64 62 61 62 63 60 58 55 55 57 62 65 66 72 72 73 72 70 68 74 77 73 72 63 58 38 33 20 17 15 12 11 14 13
73 73 74 77 81 81 77 73 67 61 58 58 63 58 61 53 53 53 55 63 61 66 71 65 60 58 59 62 66 64 63 68 65 39 29 22 15 17 21 17 23 15 16
71 71 73 77 79 75 72 69 69 66 60 63 56 52 54 55 52 56 54 61 64 58 58 59 58 50 50 60 59 61 39 41 52 30 31 23 19 20 15 17 18 24 21
71 73 74 75 73 70 68 68 69 68 65 59 54 53 56 54 54 54 56 58 58 62 61 58 52 47 53 52 55 28 18 9 26 34 27 18 21 20 14 15 16 17 16
70 73 74 71 69 67 67 68 69 67 63 58 55 55 53 55 53 54 52 61 71 57 63 45 43 43 51 58 46 8 5 5 12 4 17 14 10 10 13 17 20 17 10
68 72 72 67 63 62 63 67 65 63 59 58 59 53 56 64 55 50 51 64 68 59 48 47 42 45 54 49 37 5 5 5 3 2 10 11 12 12 11 10 15 12 13
65 70 69 62 58 56 59 62 64 64 64 65 63 60 60 57 57 47 53 58 70 61 44 45 51 54 60 39 24 10 6 11 9 7 10 8 9 11 15 12 17 17 18
69 69 65 57 54 55 57 56 59 60 63 64 64 63 61 58 50 47 52 55 59 64 57 54 55 60 44 37 13 10 12 12 12 13 14 15 19 19 21 22 22 22 16
71 68 64 56 54 56 56 56 58 61 61 64 64 65 67 63 55 49 56 51 56 56 51 52 45 49 34 34 4 2 18 14 17 19 22 19 12 8 7 8 10 13 14
70 67 62 59 59 57 56 54 60 63 61 64 66 66 67 64 57 58 65 66 59 67 55 44 37 34 20 27 27 12 33 27 24 20 15 13 7 4 6 8 9 9 10
68 66 62 59 59 60 59 60 62 58 52 63 63 63 62 64 57 57 54 57 56 51 53 34 28 25 27 29 36 37 34 29 26 19 13 8 4 1 2 6 9 11 13
68 66 61 61 59 61 66 74 64 56 53 52 50 48 55 48 51 50 49 48 48 39 36 28 26 22 22 22 22 23 23 22 19 12 6 2 3 6 11 11 9 11 12
63 61 60 61 63 63 67 72 78 74 66 63 48 49 44 46 46 47 45 45 34 31 25 23 21 20 16 14 12 9 7 6 2 2 6 9 12 13 13 14 15 16 16
60 56 57 61 61 63 66 68 73 77 83 80 65 47 43 44 47 44 41 39 32 23 21 22 21 18 15 12 10 9 8 8 10 11 13 15 17 17 17 17 18 20 22
60 58 59 62 61 62 65 68 70 72 73 71 67 58 50 51 44 45 33 30 33 28 26 23 21 19 16 14 13 12 12 12 13 14 16 17 19 20 21 21 22 25 27
61 60 60 63 64 66 65 67 69 68 68 67 63 63 58 64 61 47 40 33 28 30 30 26 23 22 20 18 17 16 16 16 16 17 19 20 22 24 25 26 27 28 30
62 63 65 67 66 65 66 65 65 66 66 65 62 58 48 52 50 48 44 38 34 31 29 30 27 25 23 22 22 21 21 20 21 23 24 26 28 29 30 32 34 35 36
65 67 68 67 67 67 66 65 65 64 63 63 63 58 52 52 52 50 46 41 37 34 31 31 31 28 27 28 29 29 29 27 26 29 30 31 32 34 35 37 38 38 39
67 67 66 68 68 68 66 66 64 63 62 62 60 58 56 56 55 53 49 43 38 35 32 31 32 32 31 32 33 35 35 33 33 35 36 36 38 38 39 41 40 40 39
69 70 70 69 71 70 69 67 64 62 61 61 59 59 59 59 58 55 51 46 40 35 31 31 30 30 31 32 35 36 37 35 37 37 39 41 41 39 40 41 40 38 37
71 72 73 74 73 73 71 67 65 63 63 63 62 61 61 61 58 55 54 51 46 40 33 29 28 27 27 28 30 31 33 34 36 35 38 40 40 38 37 37 34 33 33
70 72 74 75 73 72 70 68 65 65 66 66 62 61 62 61 57 57 61 59 52 43 36 31 27 25 23 21 21 24 27 29 30 31 34 33 32 28 27 27 26 30 31
Wind_Direction_850mb
325 325 325 323 321 317 315 313 311 311 311 307 306 305 304 302 297 297 292 287 287 289 290 290 289 286 282 283 283 282 282 284 281 285 287 288 288 281 282 283 286 254 248
331 329 328 324 322 319 317 315 315 311 308 306 303 303 302 302 302 302 296 287 290 292 291 291 287 285 281 282 284 284 284 284 280 281 284 286 283 286 289 284 249 219 222
333 331 329 327 326 324 321 319 317 309 308 311 309 308 306 305 301 298 298 296 292 291 289 290 289 287 285 283 285 285 286 286 283 272 279 280 280 277 262 254 229 210 171
335 333 333 331 329 326 324 320 318 319 315 315 315 314 313 312 309 306 300 297 295 293 290 291 291 287 284 284 284 283 287 286 283 276 265 274 253 257 221 230 217 214 202
334 335 336 335 332 332 328 328 325 323 322 321 320 318 318 314 312 310 306 304 302 300 300 294 291 285 279 278 279 280 284 283 282 275 263 250 245 225 175 156 174 184 170
337 337 339 337 337 336 336 336 333 331 327 325 321 323 317 317 315 312 309 309 307 305 304 302 296 292 291 285 287 286 277 272 267 243 255 243 233 203 224 229 157 152 144
337 338 340 340 338 339 340 341 343 340 333 334 328 328 329 324 325 321 318 315 312 313 309 303 302 300 301 304 306 297 265 256 255 248 245 237 224 200 199 201 191 185 173
338 339 340 340 339 341 341 343 343 340 338 335 339 333 329 331 326 327 326 322 323 326 322 321 315 312 315 319 303 293 236 257 239 240 236 207 182 218 228 194 180 174 164
336 338 339 340 339 341 342 344 342 338 340 341 331 336 341 342 333 330 330 331 332 335 333 337 336 324 314 331 330 211 181 239 236 149 171 185 172 172 168 168 174 181 149
335 337 338 339 336 338 341 340 339 341 338 337 346 350 349 344 338 334 335 335 333 338 337 339 337 332 330 333 344 149 182 233 242 156 167 164 157 166 174 181 180 174 159
334 337 339 337 335 338 339 338 341 339 337 341 340 348 345 341 343 338 339 338 341 341 345 338 332 336 331 329 331 266 230 223 210 178 176 187 185 181 193 182 184 174 187
338 339 338 337 338 336 335 339 340 339 336 334 337 340 338 342 341 337 338 343 344 347 343 331 334 337 340 327 310 270 214 207 188 173 162 145 136 149 154 163 176 186 194
339 340 340 340 338 336 333 335 338 340 335 333 336 329 332 335 337 340 342 338 341 337 335 331 332 340 347 334 312 227 164 159 154 149 158 162 166 160 175 194 216 235 238
341 341 341 338 337 336 336 335 331 335 333 334 325 325 325 327 330 342 336 337 337 332 331 334 340 350 24 72 109 119 158 158 166 160 152 140 143 196 232 246 250 236 239
342 342 339 336 336 336 335 335 333 334 329 322 321 321 322 322 327 326 327 330 332 333 323 336 346 4 31 60 88 111 122 121 123 123 124 117 97 61 240 247 252 237 242
342 340 338 338 337 336 335 337 341 337 328 326 323 323 320 321 322 325 327 328 328 334 331 347 352 3 17 37 56 76 97 111 119 125 136 172 282 292 297 299 279 268 261
339 339 340 342 337 335 335 335 336 345 348 348 337 332 332 327 330 333 329 329 332 332 344 349 351 355 356 4 19 37 63 76 91 266 289 294 295 289 282 276 281 278 270
343 342 343 340 338 337 335 338 341 339 342 348 353 343 337 337 337 334 332 322 335 346 342 340 339 342 341 337 329 320 309 297 288 288 285 285 281 280 279 277 274 272 273
347 348 345 344 343 341 342 341 342 342 342 344 350 354 355 354 341 335 337 333 331 333 331 328 324 320 320 317 312 305 297 291 288 282 277 277 281 284 285 286 286 285 284
353 352 349 347 346 346 345 343 344 343 345 348 350 349 352 346 336 344 345 337 328 321 319 317 314 308 304 302 299 296 294 293 291 289 285 284 283 282 282 282 280 279 281
357 356 353 353 349 348 347 346 345 348 348 349 349 351 337 330 344 345 339 335 326 318 312 309 306 301 297 294 291 288 285 284 285 285 284 285 285 284 284 284 284 284 284
360 358 356 353 352 351 351 351 351 351 351 350 352 354 353 352 351 348 345 339 329 320 311 303 301 298 294 289 286 284 284 284 284 285 285 285 285 286 285 282 279 279 280
4 358 357 357 356 355 354 355 355 354 353 354 354 354 355 353 353 351 349 345 338 329 320 308 299 294 289 285 282 281 280 281 279 280 282 282 283 285 285 284 284 283 283
5 2 1 359 359 358 358 357 358 358 357 357 357 355 353 353 353 354 354 352 347 340 330 319 310 301 293 284 279 277 276 275 272 272 274 277 279 282 283 281 280 280 281
5 4 4 2 0 360 359 0 1 0 360 358 356 355 355 355 355 357 357 356 355 351 346 335 326 317 305 294 286 281 278 275 274 273 272 275 278 278 277 277 279 279 279
6 6 5 4 3 2 1 1 2 1 360 358 358 357 357 358 359 358 357 359 358 355 352 347 340 331 324 313 300 287 280 276 273 271 272 274 275 274 273 275 277 278 280